sat.trackr.live / text

‹ back to catalog

QPS-SAR-12 (KUSHINADA-I)

NORAD 65116 · 2025-169A

PAYLOAD ACTIVE UNKNOWN

§ Identity

Operator
Country
JPN
Launch date
2025-08-05
Launch site
RLLB
Launch vehicle
Mass (kg)
RCS (m²)

External: N2YO · Heavens-Above · Gunter

§ Orbital elements

Epoch: 2026-05-25T00:16:03.957024Z

Period
95.96 min
Inclination
42.0102°
Eccentricity
0.0005910
Mean motion
15.00606637 rev/d
Perigee alt
560.9 km
Apogee alt
569.1 km
Semi-major
6,943.2 km
B*
2.8771e-4
RAAN
143.5913°
Arg perigee
55.8132°
Mean anomaly
304.3253°
Rev number
4,393

§ Raw data

QPS-SAR-12 (KUSHINADA-I)1 65116U 25169A   26145.01115691  .00003513  00000+0  28771-3 0  99932 65116  42.0102 143.5913 0005910  55.8132 304.3253 15.00606637 43938

JSON: /api/v1/satellites/65116 · /tle

For live sub-satellite position, see the globe view (requires WebGL).

§ Visibility from observer

Set your observer location to see the next 7 days of passes ≥ 10°. The values pass through the URL so the page stays shareable.

No JS? Fill the form by hand. The geolocation button needs JavaScript.